This is the latest recevied weather packets stored in our database for station/object WE1C. If no packets are shown the sender has not sent any weather packets the latest 10 day(s).
| Time | Temp. | Humidity | Pressure | Rain* | Wind** | Luminosity | Snow |
|---|---|---|---|---|---|---|---|
| 1778104411 | 13.89° C | 99% | 1035.3 hPa | 0 mm | - | 21 W/m² | - |
| 1778104107 | 14.44° C | 99% | 1035.1 hPa | 0 mm | - | 17 W/m² | - |
| 1778103804 | 14.44° C | 99% | 1035.1 hPa | 1.78 mm | - | 28 W/m² | - |
| 1778103502 | 14.44° C | 99% | 1035.2 hPa | 3.05 mm | - | 58 W/m² | - |
| 1778103199 | 14.44° C | 99% | 1035 hPa | 2.29 mm | - | 85 W/m² | - |
| 1778102896 | 14.44° C | 98% | 1035.4 hPa | 1.27 mm | - | 54 W/m² | - |
| 1778102592 | 14.44° C | 98% | 1035.7 hPa | 0 mm | - | 45 W/m² | - |
| 1778102287 | 14.44° C | 98% | 1035.3 hPa | 0 mm | - | 41 W/m² | - |
| 1778101983 | 14.44° C | 98% | 1035.3 hPa | 0 mm | - | 39 W/m² | - |
| 1778101681 | 14.44° C | 98% | 1035.5 hPa | 0 mm | - | 76 W/m² | - |
| 1778101377 | 14.44° C | 98% | 1035.3 hPa | 0 mm | - | 121 W/m² | - |
| 1778101074 | 14.44° C | 98% | 1035.7 hPa | 0 mm | - | 121 W/m² | - |
| 1778100770 | 14.44° C | 98% | 1035.5 hPa | 1.27 mm | - | 138 W/m² | - |
| 1778100467 | 14.44° C | 98% | 1035.6 hPa | 1.27 mm | - | 112 W/m² | - |
| 1778100165 | 14.44° C | 98% | 1035.5 hPa | 0 mm | - | 188 W/m² | - |
| 1778099862 | 14.44° C | 97% | 1035.7 hPa | 0 mm | - | 69 W/m² | - |
| 1778099559 | 14.44° C | 97% | 1035.9 hPa | 0 mm | - | 112 W/m² | - |
| 1778099257 | 14.44° C | 97% | 1035.7 hPa | 0 mm | - | 115 W/m² | - |
| 1778098953 | 14.44° C | 97% | 1035.5 hPa | 0 mm | - | 135 W/m² | - |
| 1778098650 | 14.44° C | 97% | 1035.8 hPa | 0 mm | - | 138 W/m² | - |
| 1778098347 | 14.44° C | 97% | 1036 hPa | 1.27 mm | - | 111 W/m² | - |
| 1778098044 | 14.44° C | 97% | 1035.9 hPa | 1.27 mm | - | 155 W/m² | - |
| 1778097740 | 14.44° C | 97% | 1035.8 hPa | 1.78 mm | - | 134 W/m² | - |
| 1778097437 | 14.44° C | 97% | 1035.9 hPa | 1.78 mm | - | 94 W/m² | - |
| 1778097133 | 14.44° C | 97% | 1035.9 hPa | 1.27 mm | - | 101 W/m² | - |
* Rain latest hour (hover to see other rain measurements)
** Current wind speed in m/s (hover to see current wind gust speed)